DECAYED

STARLINK-2365, 47905 (Decayed)

Orbit data source: Space-Track

STARLINK-2365, 47905 was a payload satellite owned by SpaceX/Seattle (US) in LEO that was launched on Sun, 14 Mar 2021 UTC via an FALCON 9 launch vehicle from the Air Force Eastern Test Range (AFETR). Payload-class satellites include a variety of spacecraft equipped with specific instruments for various scientific and technological missions. These include communications satellites like Starlink; space stations such as the ISS; scientific satellites like the Hubble; Earth observation satellites from companies like Planet Labs, Umbra, and HawkEye 360; GPS; miniature CubeSats for education and research; and military/defense satellites.

Not visible in the next 10 days
Identifier
47905, 2021-021AX
Orbit
Decayed
Country
Flag of USUS
Related business
Manufacturer
SpaceX/Seattle
Mission
Decayed Commercial Communications
Bus & Motor
STARLINK, Unknown motor
Mass
260 kg wet, ~248 kg dry
Launch date (UTC)
2021-03-14 (5 years ago)
Launch vehicle
FALCON 9
Launch site
Air Force Eastern Test Range (AFETR)
Object type
Payload
Rocket body
Debris
Shape & HBR
Box + 1 Pan, 10.1 m
Radar Cross Section
13.562 m², Large (>1 m²)

Expand to show TLE details & history
Last TLE update: 1 year ago

TLE from 1 year ago
0 STARLINK-2365
1 47905U 21021AX  25035.52142135  .11048477  12339-4  10138-2 0  9998
2 47905  53.0294 217.8395 0005940 288.6466 166.4577 16.38020719216106
Epoch: 2025-02-04T12:30Z
TLE epoch observation values (Epoch: 2025-02-04T12:30:50.804Z)
Latitude
52.88499°
Longitude
-6.31376°
Altitude
181.265 km
Speed
7.802 km/s
True Right ascension
21h 05m 17s
True Declination
52° 42' 17"
Sunlit
Object was in daylight at epoch
Visualization orbit readout
Latitude
Unknown
Longitude
Unknown
Altitude
Unknown
Speed
Unknown
Apparent Right ascension
Unknown
Apparent Declination
Unknown
Sunlit
N/A
Visualization observer readout
Local Sidereal Time
21:32:16
Azimuth
Unknown
Elevation
Unknown
Doppler factor
Unknown
Orbital elements
Apogee altitude
175.253 km
Perigee altitude
167.473 km
Semi-major axis
6,549.5 km
Eccentricity
0.00059
Inclination
53.0294°
RAAN
217.8395°
Arg. of periapsis
288.6466°
True anomaly
166.47363°
Mean anomaly
166.4577°
Eccentric anomaly
166.46566°
Mean motion
4.09478 °/min
Orbital period
87.92 mins
BSTAR
0.0010138
Loading maneuver chart data...
Computing Atmospheric mass density...

Documentation

Showing up to 5 results
|